Hourly Weather Ruda

Today, 22 April, Thursday

Time Temperature Precipitation Wind Pressure Humidity
00:00 +6°C° 0 mm 2 mps 741 mmHg 90%
01:00 +6°C° 0 mm 2 mps 741 mmHg 91%
02:00 +6°C° 0 mm 2 mps 741 mmHg 92%
03:00 +5°C° 0 mm 2 mps 741 mmHg 92%
04:00 +4°C° 0 mm 3 mps 741 mmHg 92%
05:00 +4°C° 0 mm 3 mps 741 mmHg 93%
06:00 +5°C° 0 mm 3 mps 741 mmHg 86%
07:00 +7°C° 0 mm 4 mps 741 mmHg 80%
08:00 +10°C° 0 mm 4 mps 742 mmHg 73%
09:00 +10°C° 0.2 mm 5 mps 742 mmHg 68%
10:00 +12°C° 0.2 mm 5 mps 742 mmHg 63%
11:00 +13°C° 0.2 mm 6 mps 742 mmHg 58%
12:00 +11°C° 0.5 mm 6 mps 742 mmHg 61%
13:00 +10°C° 0.5 mm 6 mps 742 mmHg 65%
14:00 +9°C° 0.5 mm 7 mps 743 mmHg 68%
15:00 +9°C° 0 mm 6 mps 743 mmHg 65%
16:00 +9°C° 0 mm 5 mps 742 mmHg 61%
17:00 +10°C° 0 mm 4 mps 742 mmHg 58%
18:00 +8°C° 0 mm 4 mps 743 mmHg 59%
19:00 +7°C° 0 mm 3 mps 743 mmHg 61%
20:00 +6°C° 0 mm 2 mps 743 mmHg 63%
21:00 +5°C° 0 mm 2 mps 744 mmHg 66%
22:00 +4°C° 0 mm 3 mps 744 mmHg 68%
23:00 +3°C° 0 mm 3 mps 744 mmHg 71%

Tomorrow, 23 April, Friday

Time Temperature Precipitation Wind Pressure Humidity
00:00 +3°C° 0 mm 3 mps 744 mmHg 73%
01:00 +2°C° 0 mm 3 mps 744 mmHg 76%
02:00 +1°C° 0 mm 3 mps 744 mmHg 78%
03:00 +1°C° 0 mm 3 mps 744 mmHg 80%
04:00 -1°C° 0 mm 4 mps 744 mmHg 82%
05:00 -1°C° 0 mm 4 mps 744 mmHg 83%
06:00 0°C° 0 mm 4 mps 744 mmHg 78%
07:00 +1°C° 0 mm 5 mps 745 mmHg 73%
08:00 +2°C° 0 mm 5 mps 745 mmHg 67%
09:00 +2°C° 0 mm 5 mps 745 mmHg 66%
10:00 +3°C° 0 mm 5 mps 745 mmHg 66%
11:00 +3°C° 0 mm 5 mps 745 mmHg 65%
12:00 +3°C° 0.3 mm 5 mps 745 mmHg 63%
13:00 +5°C° 0.3 mm 5 mps 745 mmHg 61%
14:00 +6°C° 0.3 mm 5 mps 745 mmHg 58%
15:00 +6°C° 0.2 mm 5 mps 745 mmHg 56%
16:00 +6°C° 0.2 mm 5 mps 745 mmHg 54%
17:00 +6°C° 0.2 mm 4 mps 745 mmHg 52%
18:00 +5°C° 0 mm 4 mps 745 mmHg 59%
19:00 +3°C° 0 mm 3 mps 745 mmHg 66%
20:00 +3°C° 0 mm 2 mps 745 mmHg 73%
21:00 +2°C° 0.2 mm 2 mps 745 mmHg 77%
22:00 +2°C° 0.2 mm 2 mps 745 mmHg 81%
23:00 +1°C° 0.2 mm 3 mps 744 mmHg 85%

Day after tomorrow, 24 April, Saturday

Time Temperature Precipitation Wind Pressure Humidity
00:00 0°C° 1.9 mm 3 mps 744 mmHg 88%
01:00 -1°C° 1.9 mm 4 mps 745 mmHg 90%
02:00 -2°C° 1.9 mm 5 mps 745 mmHg 93%
03:00 -2°C° 0.2 mm 5 mps 745 mmHg 93%
04:00 -4°C° 0.2 mm 5 mps 745 mmHg 93%
05:00 -4°C° 0.2 mm 4 mps 746 mmHg 93%
06:00 -4°C° 0 mm 5 mps 746 mmHg 92%
07:00 -2°C° 0 mm 5 mps 746 mmHg 91%
08:00 -1°C° 0 mm 5 mps 746 mmHg 89%
09:00 0°C° 0.1 mm 5 mps 746 mmHg 83%
10:00 +1°C° 0.1 mm 6 mps 746 mmHg 77%
11:00 +3°C° 0.1 mm 6 mps 747 mmHg 70%
12:00 +3°C° 0.2 mm 6 mps 746 mmHg 66%
13:00 +4°C° 0.2 mm 6 mps 746 mmHg 62%
14:00 +5°C° 0.2 mm 7 mps 746 mmHg 58%
15:00 +4°C° 0.3 mm 6 mps 746 mmHg 60%
16:00 +4°C° 0.3 mm 6 mps 746 mmHg 62%
17:00 +5°C° 0.3 mm 5 mps 746 mmHg 63%
18:00 +2°C° 0.1 mm 5 mps 747 mmHg 69%
19:00 +1°C° 0.1 mm 4 mps 747 mmHg 76%
20:00 0°C° 0.1 mm 3 mps 747 mmHg 82%
21:00 0°C° 0 mm 3 mps 747 mmHg 83%
22:00 -1°C° 0 mm 4 mps 747 mmHg 85%
23:00 -2°C° 0 mm 4 mps 747 mmHg 86%

25 April, Sunday

Time Temperature Precipitation Wind Pressure Humidity
00:00 -2°C° 0 mm 4 mps 747 mmHg 86%
01:00 -3°C° 0 mm 4 mps 747 mmHg 85%
02:00 -3°C° 0 mm 4 mps 747 mmHg 85%
03:00 -4°C° 0 mm 4 mps 747 mmHg 86%
04:00 -4°C° 0 mm 4 mps 747 mmHg 88%
05:00 -4°C° 0 mm 4 mps 747 mmHg 89%
06:00 -3°C° 0 mm 4 mps 747 mmHg 83%
07:00 -2°C° 0 mm 5 mps 747 mmHg 78%
08:00 -1°C° 0 mm 6 mps 747 mmHg 72%
09:00 +1°C° 0 mm 6 mps 747 mmHg 65%
10:00 +2°C° 0 mm 6 mps 747 mmHg 59%
11:00 +3°C° 0 mm 6 mps 747 mmHg 52%
12:00 +3°C° 0.1 mm 6 mps 747 mmHg 51%
13:00 +4°C° 0.1 mm 6 mps 747 mmHg 50%
14:00 +4°C° 0.1 mm 6 mps 747 mmHg 49%
15:00 +5°C° 0.3 mm 5 mps 747 mmHg 55%
16:00 +5°C° 0.3 mm 5 mps 747 mmHg 60%
17:00 +3°C° 0.3 mm 5 mps 747 mmHg 66%
18:00 +3°C° 0.2 mm 4 mps 747 mmHg 72%
19:00 +1°C° 0.2 mm 4 mps 747 mmHg 78%
20:00 +1°C° 0.2 mm 3 mps 747 mmHg 85%
21:00 0°C° 0 mm 3 mps 746 mmHg 86%
22:00 0°C° 0 mm 3 mps 746 mmHg 88%
23:00 -1°C° 0 mm 3 mps 746 mmHg 90%

26 April, Monday

Time Temperature Precipitation Wind Pressure Humidity
00:00 -1°C° 0 mm 3 mps 746 mmHg 89%
01:00 -1°C° 0 mm 3 mps 746 mmHg 89%
02:00 -2°C° 0 mm 3 mps 746 mmHg 88%
03:00 -2°C° 0 mm 3 mps 746 mmHg 90%
04:00 -4°C° 0 mm 3 mps 746 mmHg 92%
05:00 -4°C° 0 mm 3 mps 747 mmHg 93%
06:00 -3°C° 0 mm 4 mps 747 mmHg 87%
07:00 -2°C° 0 mm 4 mps 747 mmHg 81%
08:00 -1°C° 0 mm 5 mps 747 mmHg 74%
09:00 0°C° 0.1 mm 5 mps 747 mmHg 70%
10:00 +1°C° 0.1 mm 5 mps 747 mmHg 65%
11:00 +2°C° 0.1 mm 5 mps 747 mmHg 60%
12:00 +2°C° 0.2 mm 5 mps 747 mmHg 57%
13:00 +3°C° 0.2 mm 5 mps 746 mmHg 54%
14:00 +5°C° 0.2 mm 5 mps 746 mmHg 51%
15:00 +5°C° 0.1 mm 5 mps 746 mmHg 51%
16:00 +5°C° 0.1 mm 4 mps 746 mmHg 52%
17:00 +5°C° 0.1 mm 4 mps 746 mmHg 53%
18:00 +4°C° 0 mm 3 mps 746 mmHg 61%
19:00 +3°C° 0 mm 3 mps 746 mmHg 69%
20:00 +2°C° 0 mm 2 mps 746 mmHg 77%
21:00 +1°C° 0 mm 2 mps 746 mmHg 81%
22:00 +1°C° 0 mm 2 mps 746 mmHg 85%
23:00 -1°C° 0 mm 2 mps 746 mmHg 89%

27 April, Tuesday

Time Temperature Precipitation Wind Pressure Humidity
00:00 -1°C° 0 mm 2 mps 746 mmHg 90%
01:00 -2°C° 0 mm 2 mps 746 mmHg 91%
02:00 -2°C° 0 mm 2 mps 746 mmHg 92%
03:00 -2°C° 0 mm 2 mps 746 mmHg 92%
04:00 -2°C° 0 mm 2 mps 746 mmHg 92%
05:00 -2°C° 0 mm 2 mps 746 mmHg 93%
06:00 -1°C° 0 mm 2 mps 746 mmHg 84%
07:00 +2°C° 0 mm 2 mps 746 mmHg 74%
08:00 +4°C° 0 mm 2 mps 746 mmHg 65%
09:00 +5°C° 0 mm 2 mps 746 mmHg 60%
10:00 +7°C° 0 mm 2 mps 746 mmHg 55%
11:00 +8°C° 0 mm 3 mps 745 mmHg 49%
12:00 +9°C° 0 mm 3 mps 745 mmHg 49%
13:00 +9°C° 0 mm 3 mps 744 mmHg 48%
14:00 +10°C° 0 mm 3 mps 744 mmHg 47%
15:00 +10°C° 0 mm 2 mps 744 mmHg 49%
16:00 +10°C° 0 mm 2 mps 743 mmHg 50%
17:00 +10°C° 0 mm 2 mps 743 mmHg 52%
18:00 +9°C° 0 mm 2 mps 743 mmHg 58%
19:00 +7°C° 0 mm 2 mps 742 mmHg 63%
20:00 +5°C° 0 mm 3 mps 742 mmHg 68%
21:00 +4°C° 0 mm 3 mps 741 mmHg 69%
22:00 +4°C° 0 mm 3 mps 741 mmHg 69%
23:00 +4°C° 0 mm 4 mps 741 mmHg 70%
Show more